Terminal Aerodrome Forecast
Issued by NWS

Home | Current Version | Previous Version | Graphics & Text | Print | Product List | Glossary On
Versions: 1 2 3 4 5 6 7 8 9 10 11 12 13 14 15 16 17 18 19 20 21 22 23 24 25 26 27 28 29 30 31 32 33 34 35 36 37 38 39 40 41 42 43 44 45 46 47 48 49 50
000
FTUS43 KLOT 242205 AAB
TAFGYY
TAF AMD
KGYY 242205Z 2422/2518 VRB05KT P6SM VCSH SCT050 BKN080
      TEMPO 2422/2423 3SM SHRA BR SCT030 OVC050
     FM242300 13011KT P6SM VCSH BKN040 OVC080
     FM250000 18011G19KT P6SM SCT040 OVC080
     FM250800 18014G20KT P6SM VCTS BKN040CB OVC080
      TEMPO 2510/2513 TSRA SCT020 OVC040CB
     FM251300 20025G35KT P6SM BKN025 BKN040=

USA.gov is the U.S. government's official web portal to all federal, state and local government web resources and services.